Theta_e
294 293 294 294 294 294 294 295 295 294 293 293 293 293 293 293 293 292 293 292 292 292 292 291 290 289 289 289 288 288 287 286 286 286 286 286 285 286 284 284 283 283 282 282 281 281 282 281 281 281 281 282 282 282 281 281 281 280 280 280 280 280
294 294 293 293 294 293 294 294 294 293 293 293 292 292 292 292 292 292 292 292 292 292 291 290 290 289 289 287 287 287 285 285 285 285 285 285 285 284 284 283 283 282 282 282 282 281 281 281 281 281 281 281 282 282 281 281 281 280 280 280 280 281
294 293 293 294 293 293 292 293 293 292 292 292 292 292 291 291 291 291 291 291 291 290 289 289 289 289 288 287 286 285 285 285 285 284 284 284 284 284 283 283 282 282 282 281 281 281 281 281 281 282 282 281 281 280 280 280 280 280 280 280 280 281
293 293 293 293 292 292 292 292 292 291 291 291 291 291 291 290 290 290 290 289 290 289 289 289 288 287 286 285 285 285 284 284 285 284 284 283 283 283 283 282 282 282 281 281 280 280 281 282 282 282 281 281 280 281 282 281 280 280 280 280 280 280
293 292 292 292 291 291 291 291 291 291 291 291 290 290 290 290 290 290 289 289 288 288 288 287 287 286 285 285 285 285 285 284 284 283 284 283 282 282 282 282 282 281 281 280 280 280 280 281 281 281 280 280 280 280 280 281 280 280 280 279 280 280
292 291 291 291 291 291 291 291 291 291 290 290 290 289 289 289 289 289 288 287 287 287 287 287 287 286 286 286 286 285 285 285 284 283 283 282 282 281 281 281 282 282 281 281 281 281 281 281 280 280 280 279 279 279 279 279 280 280 280 280 280 280
291 291 291 291 290 290 290 290 290 289 290 289 289 289 289 289 288 287 287 286 286 286 286 286 285 285 285 285 285 284 284 284 284 283 283 282 282 282 281 282 281 282 281 282 281 281 281 281 280 280 280 280 279 279 280 279 280 280 280 280 280 281
291 290 290 290 290 290 290 290 289 289 289 289 289 288 287 288 287 286 286 286 285 285 285 285 285 285 284 284 284 284 284 284 283 283 283 282 282 281 281 281 282 283 282 281 281 281 281 281 280 280 280 279 279 279 279 279 279 280 280 280 280 280
291 290 290 290 289 289 289 288 289 288 288 288 287 287 286 286 286 285 285 285 284 285 285 285 285 285 285 284 284 284 284 284 283 283 283 283 282 281 281 282 281 282 281 282 282 281 281 280 279 279 279 279 279 279 279 279 279 279 280 280 280 280
290 290 289 289 289 288 288 288 287 287 286 286 286 285 285 287 285 285 285 285 285 284 285 285 284 284 285 284 284 284 283 283 283 283 283 282 282 282 282 282 283 283 282 282 282 282 282 281 280 280 279 279 279 279 279 280 280 280 280 280 280 280
289 289 289 289 288 287 287 286 286 285 285 285 284 284 285 284 284 284 284 284 284 284 284 284 284 284 284 283 283 283 283 283 283 283 282 282 282 283 282 283 283 283 282 282 282 282 282 282 282 281 281 280 280 280 280 280 280 280 280 280 280 280
289 289 288 287 287 287 286 286 286 285 284 285 284 284 285 284 284 284 284 284 284 284 284 284 283 283 283 283 283 283 283 283 283 283 282 282 282 282 283 283 283 283 282 282 282 282 283 282 282 283 285 286 283 282 281 281 281 281 281 280 280 280
289 288 287 287 286 286 286 286 285 284 283 283 283 284 284 283 283 283 283 283 283 283 283 283 283 282 283 282 282 282 282 282 282 282 282 281 282 282 282 282 282 282 282 282 282 282 282 282 283 284 288 288 288 285 283 281 281 281 281 280 280 280
288 287 287 286 286 286 285 284 284 282 283 283 283 283 283 283 283 283 283 282 282 282 282 282 282 282 282 281 282 281 281 281 281 281 281 281 281 282 281 282 282 281 281 282 281 281 281 281 284 287 287 288 289 287 284 282 281 281 280 280 280 280
287 287 287 286 286 285 286 285 283 283 283 283 283 283 283 282 282 282 282 282 282 282 282 281 281 281 281 281 281 281 281 280 280 280 281 281 281 280 280 280 280 280 280 280 280 280 281 280 284 286 287 288 288 289 287 283 282 281 280 280 280 280
287 287 287 286 285 285 286 285 284 284 284 283 282 282 282 282 282 281 281 281 281 281 281 281 281 281 281 280 280 280 280 280 280 279 279 280 281 280 280 280 280 280 280 280 279 279 280 280 283 287 287 287 287 288 287 283 282 281 281 280 280 280
287 286 285 284 284 285 284 283 283 283 283 282 282 281 282 281 281 281 280 280 280 281 280 280 280 280 280 280 280 279 279 279 279 280 280 280 280 279 280 279 279 280 280 279 280 279 280 280 285 286 287 287 287 288 287 282 281 280 280 280 280 280
286 285 285 285 284 284 283 284 283 282 283 282 281 281 281 281 280 280 280 280 280 280 280 280 279 279 279 279 279 279 279 279 279 279 279 280 279 279 279 279 279 279 279 279 279 279 279 279 284 286 286 286 287 288 283 281 280 280 280 280 280 280
285 286 285 284 283 283 283 283 282 282 282 281 281 280 280 280 280 280 280 280 280 280 280 279 279 279 279 278 278 278 278 279 279 279 280 278 278 278 279 279 279 279 279 279 279 279 279 279 282 285 285 286 287 285 282 281 280 280 280 280 280 280
284 284 284 283 283 283 283 283 282 281 281 281 280 279 279 279 280 280 280 280 279 279 279 279 278 278 278 277 277 278 278 278 278 278 279 278 278 278 278 278 278 279 279 279 279 279 279 279 281 284 285 286 286 285 282 281 280 279 279 279 280 280
284 284 283 283 282 283 283 282 282 281 280 280 279 279 278 279 279 279 280 279 279 279 278 278 278 278 278 277 278 278 278 278 278 279 278 278 277 278 278 279 278 278 278 279 279 280 279 279 279 283 284 285 285 284 281 281 279 278 278 278 279 280
284 283 283 282 282 282 282 283 281 280 280 279 279 279 279 279 280 280 279 278 278 278 279 278 278 278 278 277 277 278 278 278 278 278 278 278 277 277 278 278 278 277 278 278 278 278 278 278 278 280 284 284 284 284 281 279 278 277 277 278 278 279
283 283 282 282 282 282 282 281 281 280 279 278 278 279 280 280 279 279 279 278 278 279 279 279 279 278 278 278 278 278 278 277 277 277 277 277 277 277 277 277 277 277 277 277 277 278 278 278 278 279 283 283 283 282 281 278 277 277 277 278 278 277
283 282 282 282 281 281 281 281 280 279 278 278 279 279 280 280 279 279 278 279 279 280 279 278 278 278 279 277 278 277 277 277 277 277 277 277 276 276 276 276 277 277 277 277 277 277 277 278 279 277 280 282 282 281 282 279 278 279 278 277 276 276
283 282 282 281 280 281 280 280 279 279 279 278 278 279 279 279 279 279 279 281 280 279 278 278 277 278 277 276 277 276 276 276 276 276 276 276 276 275 275 275 276 276 275 276 276 276 276 277 277 278 277 279 281 281 281 281 280 281 278 276 275 275
282 282 281 281 280 279 279 280 279 279 278 278 278 278 279 278 279 279 280 279 278 277 277 277 277 277 276 276 277 276 276 276 275 276 276 276 275 275 275 275 275 275 274 274 275 275 276 276 276 277 277 277 280 280 281 281 281 281 278 278 276 276
282 281 280 280 279 279 279 278 278 277 277 278 278 278 278 278 278 278 277 276 276 276 276 277 276 277 276 276 276 276 276 275 275 275 275 275 275 275 274 274 274 274 274 274 273 274 274 275 275 275 276 277 277 280 280 280 280 280 280 277 276 276
281 281 280 279 279 279 279 278 277 276 277 278 278 278 278 277 277 276 275 275 275 276 276 276 275 275 276 276 277 276 276 276 276 275 275 275 275 274 274 274 274 274 273 273 273 273 274 274 274 275 275 276 276 276 278 279 279 277 277 277 276 277
280 280 279 279 278 278 278 276 277 277 278 278 278 277 276 275 276 276 275 275 276 276 276 274 275 276 276 274 275 276 276 276 275 275 275 275 274 274 273 273 273 273 273 272 272 273 273 273 274 274 274 275 275 275 275 275 275 276 276 276 276 275
279 280 279 279 279 278 277 277 277 277 277 277 276 275 275 275 275 274 274 275 275 276 276 275 278 277 275 275 275 275 275 275 275 274 273 274 274 274 273 273 273 273 272 272 272 272 272 273 273 273 273 274 274 275 275 275 275 275 275 274 274 274
279 279 279 279 278 278 277 276 276 276 276 276 275 275 274 274 275 275 273 274 274 274 276 276 275 275 274 274 274 275 275 275 275 275 275 275 274 273 274 274 274 274 273 273 273 272 271 272 272 273 276 276 278 276 275 274 274 274 274 274 277 274
279 278 278 278 278 278 277 276 276 277 276 276 275 274 273 273 274 274 274 275 274 275 275 275 274 273 274 274 274 274 274 277 278 278 276 275 277 278 279 279 275 275 275 274 274 274 273 272 273 278 279 278 278 278 278 277 277 277 275 275 278 274
278 278 277 278 278 277 277 275 276 275 276 275 274 273 273 273 273 273 275 276 274 275 275 274 273 273 273 273 273 273 273 273 274 278 278 278 277 276 277 278 278 278 278 276 274 274 278 278 278 278 278 278 277 277 277 277 277 277 277 277 273 271
278 277 277 278 278 277 277 276 275 275 275 275 274 274 273 273 274 274 274 274 274 275 275 273 273 273 273 273 273 273 272 272 272 272 275 276 275 276 277 277 278 277 277 277 276 274 273 275 277 277 277 277 277 276 276 276 276 276 276 276 275 269
280 279 279 279 279 278 277 276 275 274 274 274 273 273 272 273 274 274 274 274 274 273 274 273 273 273 273 272 272 271 272 271 270 270 270 272 274 275 276 275 276 276 276 276 276 276 276 276 276 277 276 276 276 276 276 276 276 275 275 274 270 266
279 278 278 278 278 278 276 276 274 273 273 273 273 274 274 274 274 273 273 272 272 272 272 272 272 272 272 272 271 271 271 271 271 270 269 269 269 270 272 273 274 274 274 275 275 275 275 275 276 275 275 275 275 275 275 275 272 274 274 272 267 265
278 277 277 277 276 276 274 274 272 273 273 273 274 274 274 273 271 271 273 274 274 271 271 271 271 271 271 271 271 271 270 270 270 270 269 269 268 267 267 268 269 271 272 271 272 274 274 274 274 275 275 274 274 274 274 273 268 265 265 265 265 265
277 276 276 276 275 274 273 273 273 273 274 274 273 273 272 272 271 270 270 270 271 271 270 270 271 271 270 270 270 271 271 270 270 269 269 269 268 268 267 267 268 269 270 271 271 271 271 271 271 272 272 271 272 273 273 266 263 263 263 264 264 265
Wind_Speed
3 4 4 4 4 4 5 5 5 5 5 5 5 6 6 6 6 5 6 5 4 4 5 5 4 4 4 4 4 4 4 5 5 5 5 5 5 5 4 3 2 2 3 4 4 4 5 5 6 6 6 7 8 8 8 7 7 9 9 9 8 9
3 4 4 5 5 5 5 5 5 6 6 6 5 5 5 6 7 7 7 7 6 7 6 6 5 5 4 4 4 4 4 4 5 5 5 5 4 4 4 3 3 4 4 4 4 5 4 5 5 6 7 7 8 8 8 8 8 10 10 10 8 8
4 4 4 4 5 5 5 5 5 5 5 5 6 7 7 7 7 7 6 6 6 6 6 6 5 5 5 5 5 4 4 4 4 4 4 3 4 4 4 4 4 4 4 4 4 5 6 6 7 6 7 7 8 7 8 8 9 10 10 9 10 9
4 4 5 4 4 5 5 5 5 5 6 6 6 6 6 6 7 6 6 5 5 5 5 5 5 4 4 4 4 4 4 4 4 4 3 3 4 3 4 4 4 4 4 4 4 4 5 6 7 6 5 7 8 9 7 8 9 10 11 9 11 10
3 4 4 4 4 4 4 5 5 6 6 6 6 6 7 6 6 5 5 5 5 5 5 5 5 5 5 5 5 5 5 5 5 4 3 4 4 4 3 4 4 3 2 3 4 4 4 5 5 5 5 6 8 9 8 7 8 10 10 11 11 11
4 4 4 4 5 5 6 6 5 5 5 5 5 6 7 6 6 6 5 5 6 6 6 7 6 7 7 6 6 6 5 5 5 5 5 4 4 4 4 4 4 3 3 3 4 4 5 5 5 5 5 6 7 8 8 8 8 9 10 11 11 11
5 4 4 5 5 5 5 5 5 5 5 5 6 6 5 6 6 6 6 6 6 7 7 6 6 6 6 6 5 6 5 5 5 5 5 5 5 5 4 5 4 4 4 4 4 4 4 5 5 5 6 6 6 7 8 8 8 9 10 11 11 11
4 4 4 4 4 4 4 4 4 5 5 5 5 5 5 6 5 6 6 6 6 6 6 6 6 6 6 6 6 6 6 6 5 5 5 5 5 5 5 5 5 4 4 4 5 4 4 4 4 5 6 6 6 7 7 8 8 9 10 10 11 11
4 4 4 3 4 4 4 4 4 4 5 5 5 5 5 5 5 5 5 5 5 6 6 7 7 7 6 7 6 6 6 6 6 5 5 5 5 5 5 5 5 5 4 5 4 5 5 5 4 5 6 6 7 7 8 8 8 10 10 10 11 11
4 4 3 4 4 4 4 4 4 4 4 5 5 5 5 5 5 5 5 5 6 6 7 6 5 6 6 6 6 6 6 5 6 5 5 5 5 5 5 4 5 5 4 5 5 5 5 5 5 5 5 6 7 7 8 8 9 10 10 10 11 11
4 4 3 3 4 4 4 4 4 4 4 4 4 5 5 4 5 5 5 5 7 7 6 5 5 5 5 5 5 6 6 6 5 5 5 5 5 5 4 4 5 5 5 5 5 6 5 5 6 5 5 6 7 7 9 9 10 10 11 11 11 11
4 4 4 4 4 4 4 4 4 4 4 5 5 5 5 4 5 5 5 6 6 6 6 6 5 6 5 6 7 6 6 6 6 6 6 6 5 5 5 5 5 5 5 6 6 5 5 5 5 7 12 11 8 8 7 8 9 10 11 11 12 11
4 4 4 4 3 3 3 3 3 4 4 4 4 5 4 4 4 5 5 6 5 5 5 6 6 5 6 6 6 6 7 7 6 6 6 6 6 6 6 5 6 6 6 6 7 7 6 5 6 12 11 12 15 10 8 8 9 9 10 11 12 12
5 4 4 4 3 3 3 3 4 4 4 4 4 4 4 4 4 5 5 5 5 5 6 5 5 6 6 6 7 7 6 6 6 6 6 7 7 7 5 6 5 5 5 6 6 7 7 7 9 14 15 15 13 14 10 8 8 8 8 10 11 11
5 5 4 4 3 2 2 2 3 4 4 4 4 4 4 4 4 5 5 5 5 5 6 5 6 6 6 7 6 6 6 6 6 6 8 8 6 5 6 6 6 7 7 6 7 9 10 8 12 15 17 18 18 17 16 9 8 9 9 10 11 12
6 5 5 4 3 2 1 1 1 1 1 2 3 3 4 4 4 4 4 5 5 5 5 5 6 6 6 5 6 6 6 6 6 5 5 5 6 7 7 7 8 8 8 8 7 7 8 9 13 18 20 20 21 21 18 10 9 9 9 10 11 11
6 6 5 4 3 2 1 2 2 1 2 2 3 3 4 4 4 4 4 4 5 5 5 5 5 5 5 5 5 5 5 6 5 6 6 7 6 7 7 7 8 7 7 8 8 7 8 9 16 18 20 20 22 23 18 10 9 9 9 9 10 11
7 7 5 4 4 2 1 0 1 1 2 2 3 3 4 4 4 4 4 4 4 4 4 4 4 4 4 5 5 5 6 6 6 6 6 6 7 6 5 6 5 8 9 8 9 9 9 9 16 18 19 22 22 25 14 12 12 12 11 12 11 11
6 6 5 5 4 2 1 1 2 2 2 3 3 4 4 4 4 4 4 4 4 4 4 4 5 4 5 5 6 6 6 6 7 6 5 7 7 8 8 7 8 8 9 10 10 11 11 10 13 18 20 21 23 19 13 13 12 12 13 13 13 12
5 5 6 5 4 3 1 1 1 3 3 2 3 3 3 4 4 4 4 4 4 4 4 4 4 4 4 4 5 5 6 6 5 5 6 6 8 8 8 7 8 8 8 10 11 11 12 12 13 18 20 21 22 20 15 12 12 13 14 14 13 12
6 6 5 6 4 2 1 1 2 3 3 2 3 3 3 4 4 4 4 4 4 4 4 4 4 4 4 4 5 5 5 6 6 6 6 6 6 8 7 7 8 9 8 8 10 13 13 12 13 16 18 21 22 19 13 12 12 14 15 14 14 13
6 5 5 5 4 2 0 0 4 3 3 2 2 3 4 4 3 4 4 4 4 3 3 3 4 4 3 4 4 5 5 5 6 7 7 7 7 8 8 8 8 10 9 9 9 10 11 12 12 13 19 20 23 24 16 12 12 13 15 15 13 12
6 6 5 5 3 2 0 2 5 4 3 3 3 4 3 3 4 4 4 3 3 3 3 2 3 4 4 3 4 4 5 5 6 7 6 7 8 7 8 9 9 9 9 9 9 10 10 10 12 13 18 19 22 25 22 12 13 12 13 13 14 12
6 6 5 5 3 2 2 4 5 4 4 4 4 3 4 4 4 3 3 3 3 3 3 3 3 3 4 4 4 5 6 6 6 6 7 6 7 8 9 10 9 9 10 9 9 9 11 11 14 13 13 17 23 25 27 16 12 14 14 14 13 14
7 6 5 4 4 4 4 5 5 4 4 4 3 3 4 4 4 3 2 2 3 3 3 4 4 4 4 4 4 5 6 6 6 6 7 8 8 8 9 9 10 11 11 11 9 9 10 11 11 15 14 17 22 25 25 26 20 25 17 14 15 13
6 6 5 4 4 4 4 5 4 4 4 4 3 3 3 3 3 2 2 2 3 3 4 4 4 4 5 5 5 5 6 7 6 7 7 7 8 8 9 9 9 10 11 12 12 11 10 10 10 12 16 15 18 23 25 25 27 27 18 17 14 13
8 7 6 5 5 5 5 4 5 5 4 2 3 2 1 2 2 2 2 3 4 4 4 5 4 5 5 5 5 6 6 6 6 7 6 6 7 8 9 10 9 10 12 12 13 13 12 11 11 12 13 16 17 19 22 25 27 27 28 18 12 13
8 8 7 6 5 5 4 4 4 4 2 1 1 1 2 2 2 2 3 4 4 5 5 5 5 5 5 6 6 5 6 7 7 7 7 7 8 8 9 10 10 11 12 12 12 13 13 13 11 11 11 11 12 12 17 22 23 20 20 19 17 23
8 8 7 7 5 5 4 5 4 3 2 1 0 1 2 2 2 3 4 4 5 5 5 5 5 5 5 5 6 6 6 7 6 7 8 8 9 9 8 9 9 11 12 13 14 14 15 14 12 12 11 9 11 10 11 11 11 14 17 14 11 13
7 7 7 7 6 5 5 4 4 3 2 1 1 2 2 3 2 4 4 6 5 5 5 5 6 7 6 6 6 7 7 6 6 6 7 8 9 11 12 11 11 11 12 13 13 13 14 15 13 12 12 12 12 13 13 12 12 12 11 12 12 13
7 6 7 6 6 6 5 4 3 3 2 1 2 2 3 4 4 4 5 5 4 5 4 5 5 6 6 7 6 6 6 7 7 8 9 6 6 5 8 11 13 14 13 13 13 14 14 13 15 13 16 20 25 22 18 15 14 13 13 17 28 23
6 6 7 6 6 6 5 4 3 2 2 1 1 2 3 4 4 4 5 4 4 5 6 6 6 5 6 7 7 8 7 7 10 9 9 11 12 14 15 15 13 14 13 14 12 11 15 15 15 24 31 29 29 31 31 29 29 29 25 29 37 25
5 6 6 6 5 5 5 4 4 2 1 2 2 2 3 4 4 4 5 5 5 6 7 6 6 6 6 6 7 7 9 10 7 9 13 14 15 18 20 24 25 26 23 17 15 14 20 26 29 29 28 30 30 30 30 30 29 30 31 33 25 16
5 6 6 5 5 4 4 4 4 3 1 2 2 3 3 4 4 4 5 5 5 6 6 6 6 7 7 7 7 8 9 9 11 10 9 11 14 14 19 23 25 26 26 27 22 18 13 16 22 29 30 29 29 29 30 30 31 33 34 33 31 17
5 4 6 6 5 4 4 4 3 3 3 3 3 4 4 4 4 5 5 5 6 6 7 7 7 7 7 8 9 9 8 9 10 12 14 12 11 14 17 18 20 22 23 24 25 26 23 24 26 29 29 29 30 29 28 29 33 32 32 31 17 12
5 5 4 4 4 4 3 5 3 4 4 2 3 4 4 4 4 5 5 6 7 7 6 6 6 7 8 8 8 8 9 9 9 11 12 14 15 14 12 13 15 17 20 20 22 25 26 26 26 27 28 29 28 29 29 30 26 30 28 23 15 12
6 5 4 4 3 4 3 5 3 3 3 3 3 4 5 4 4 5 6 10 9 6 7 6 7 8 8 8 9 9 9 10 10 10 11 12 14 14 15 15 14 12 13 15 15 20 25 25 26 27 28 29 28 29 32 31 17 14 10 10 9 11
5 4 3 3 4 3 4 4 3 3 3 3 3 4 4 5 4 5 6 6 7 7 6 7 7 8 8 9 9 9 9 10 10 11 11 12 12 13 14 15 13 12 14 20 19 18 17 19 21 22 25 26 29 30 31 17 13 12 12 12 11 11
Wind_Direction
11 20 16 8 4 0 0 355 5 358 358 1 5 354 343 340 341 342 341 340 335 335 333 329 328 325 324 320 322 330 324 311 305 300 292 307 307 305 300 285 267 225 231 222 233 230 231 233 231 229 232 229 239 239 247 241 236 242 247 243 238 243
19 21 26 11 8 14 3 6 3 6 2 4 360 350 355 356 353 359 356 352 357 352 352 349 349 341 336 324 332 324 312 298 306 305 317 299 308 306 295 287 262 254 245 238 233 242 243 239 236 230 232 234 239 243 247 247 242 247 249 250 240 244
15 15 27 18 16 17 12 12 8 5 6 7 0 358 358 1 358 359 356 356 354 355 350 347 351 345 347 351 342 338 314 306 304 304 285 317 315 310 313 292 265 251 243 240 238 236 242 241 246 235 237 239 248 246 247 252 248 252 255 255 254 248
20 15 25 16 19 12 11 9 13 10 13 8 3 1 5 1 358 357 354 353 348 353 347 343 344 344 348 349 330 326 315 307 305 286 316 317 291 310 296 288 272 257 248 246 251 249 244 247 248 250 242 248 252 256 253 259 259 262 265 265 267 262
47 44 33 15 21 14 17 17 18 14 10 10 6 7 2 5 350 348 349 352 354 354 354 357 355 356 356 359 343 349 340 333 327 323 329 310 303 316 318 306 301 282 265 261 265 266 267 261 259 258 254 255 257 262 264 260 262 265 268 268 268 268
55 48 22 21 16 14 21 18 13 10 10 14 8 9 4 356 347 347 351 356 0 2 10 10 8 13 9 11 3 6 355 354 353 351 359 344 344 341 322 333 322 319 298 287 282 278 277 279 278 274 267 264 265 267 269 270 266 267 269 270 271 270
55 42 36 26 16 17 20 18 11 9 11 16 12 7 357 353 346 357 360 9 15 11 17 14 10 14 10 9 3 1 356 354 357 356 356 358 354 343 346 335 338 333 321 296 282 282 279 276 276 279 277 275 272 272 274 273 272 270 270 271 271 272
66 53 37 27 23 26 20 18 11 7 17 14 13 9 355 356 1 9 15 12 18 12 14 11 10 9 7 3 1 360 358 357 360 359 353 1 353 346 343 340 335 334 323 313 300 291 285 277 272 273 276 279 281 279 275 274 273 272 273 272 272 270
69 64 56 43 36 31 27 26 10 11 14 10 7 4 3 356 13 12 20 15 19 18 15 12 11 8 8 7 4 3 4 4 360 3 355 348 354 349 344 336 335 323 322 310 306 300 293 283 272 269 274 276 277 276 276 275 273 275 274 272 272 270
85 77 65 51 39 32 30 14 20 19 16 10 358 356 3 0 17 17 21 21 18 18 12 10 8 17 13 12 11 9 7 4 3 359 350 356 356 352 345 337 328 315 314 305 304 298 294 289 278 270 266 268 269 273 276 276 278 278 275 275 274 274
102 97 75 60 47 35 22 11 7 10 8 2 359 1 358 3 24 24 26 24 25 15 7 6 11 14 15 10 10 9 6 3 360 357 357 358 357 349 344 336 331 325 320 307 301 298 299 296 288 275 271 271 274 273 281 282 281 278 280 278 275 273
117 98 88 62 57 33 27 9 3 4 8 357 354 5 351 23 19 35 28 31 23 13 9 10 13 15 12 14 12 8 4 5 5 5 4 358 354 346 340 341 338 339 330 326 320 312 307 299 291 285 280 278 276 275 270 278 278 281 281 282 281 276
116 107 91 82 64 43 41 7 357 2 2 359 359 3 356 31 27 35 37 31 20 15 11 16 14 14 18 14 14 10 13 9 8 11 6 0 354 348 343 345 346 343 339 335 329 325 317 307 301 298 287 283 287 287 279 270 273 272 277 280 282 284
123 115 110 95 71 59 40 10 355 12 7 360 6 0 12 31 34 42 36 31 24 20 20 15 14 18 16 18 15 10 8 7 8 10 5 356 354 348 344 345 336 332 328 324 321 317 312 307 300 304 307 300 287 295 292 281 275 275 273 275 278 280
134 127 113 104 87 62 33 29 21 5 12 11 349 15 27 32 41 41 41 30 30 24 22 16 19 17 17 17 12 6 5 5 3 3 3 354 334 332 345 341 338 338 333 330 325 320 317 313 308 310 309 310 310 301 302 295 283 282 279 279 278 280
130 120 121 114 103 91 36 61 40 322 23 11 6 37 29 51 33 46 40 34 29 26 23 19 20 18 10 7 5 4 3 2 357 349 341 338 336 342 338 337 338 331 332 326 318 310 307 307 311 314 316 317 316 315 315 304 299 290 283 282 282 282
132 125 115 107 109 102 58 8 346 341 27 21 30 27 52 42 47 40 40 36 27 26 24 20 17 12 3 360 359 359 358 351 342 343 341 342 336 334 330 326 327 323 317 315 313 310 307 304 307 314 317 318 318 319 322 314 305 297 290 287 283 283
146 135 124 120 102 107 98 58 330 55 34 35 51 42 45 53 47 39 37 33 24 25 20 25 12 4 360 358 355 358 351 348 339 339 334 335 329 324 317 316 317 320 320 316 317 317 312 310 311 315 318 320 320 321 321 317 312 309 304 300 297 291
127 125 127 121 108 95 76 342 357 63 60 37 36 57 45 49 45 33 32 34 24 20 21 21 14 359 360 357 356 354 348 344 335 333 335 339 334 329 326 324 325 322 320 319 320 318 313 311 311 314 316 316 316 316 312 311 308 304 304 303 304 300
119 123 123 116 112 118 69 7 9 89 73 53 46 55 41 49 32 24 29 32 28 20 24 16 12 358 354 360 356 345 337 331 325 327 330 335 330 325 317 315 318 315 311 311 310 311 309 307 310 311 312 314 316 317 315 313 311 309 309 306 303 301
137 131 115 114 105 80 74 1 84 85 96 74 54 65 56 34 25 15 28 24 29 21 23 14 6 349 351 349 345 337 332 328 321 313 321 320 318 309 305 311 313 310 306 302 303 305 307 307 308 310 312 314 317 318 314 315 315 312 309 308 305 302
119 110 114 109 119 103 35 50 104 100 102 86 80 59 47 18 11 3 30 27 23 19 3 17 355 334 338 335 330 326 319 312 319 320 320 316 311 305 305 306 305 304 302 302 304 306 305 306 307 310 311 312 315 318 319 316 312 309 308 307 307 314
131 132 128 121 110 91 2 112 108 111 101 88 64 47 19 10 12 13 34 15 13 357 343 346 344 320 312 311 316 307 310 313 313 310 311 308 306 301 303 305 304 302 301 303 304 303 302 302 306 308 310 310 316 319 319 312 308 307 306 307 314 318
118 113 106 105 94 92 71 106 110 110 91 74 50 37 8 19 10 9 11 7 339 327 317 315 316 310 293 302 315 319 308 303 305 303 301 300 301 303 304 305 305 304 303 303 303 300 301 304 302 307 305 309 314 316 316 313 306 309 310 313 314 313
131 128 123 108 92 83 74 97 106 107 91 70 39 8 23 13 3 352 340 336 323 318 308 307 317 317 310 303 308 307 303 303 307 303 301 302 304 303 304 304 306 308 306 304 303 299 300 302 304 305 308 309 310 312 313 312 311 314 315 312 306 307
127 125 119 109 90 78 76 91 100 93 90 68 30 14 18 358 343 325 321 315 314 316 312 306 306 309 303 301 307 306 300 302 302 302 301 301 303 307 308 307 308 308 307 309 308 306 303 303 302 304 304 303 304 308 310 313 314 314 310 310 310 311
136 126 113 105 94 83 83 90 102 102 89 48 51 3 8 317 319 320 318 310 308 311 303 301 296 300 297 300 307 306 301 298 301 303 298 301 304 305 307 307 311 308 308 309 309 309 309 309 308 306 303 303 302 303 308 311 311 311 313 309 303 296
126 124 123 114 105 92 90 90 100 99 102 83 50 341 348 317 323 325 313 308 306 300 297 297 294 294 297 301 302 293 291 297 300 297 299 305 304 306 306 307 309 309 307 306 306 308 308 309 308 305 305 305 304 304 303 303 308 308 305 299 292 294
131 133 132 128 126 116 103 91 86 95 103 105 17 321 342 320 319 316 314 306 298 294 295 296 295 299 302 301 297 296 292 291 292 298 302 303 304 301 297 296 302 304 305 307 310 309 309 308 309 308 308 308 308 306 304 304 304 304 304 301 299 303
135 138 135 134 131 122 115 108 106 101 62 62 22 345 352 331 325 313 297 292 287 292 295 295 299 303 301 296 299 299 299 291 288 284 283 295 301 308 308 311 307 303 304 305 306 305 306 306 308 310 312 312 311 314 314 312 313 313 311 308 305 304
138 140 133 132 128 119 116 121 126 112 81 34 11 356 354 326 321 311 299 290 303 303 302 300 301 300 300 297 293 279 274 290 298 299 293 270 254 259 293 304 302 303 304 304 304 305 302 302 307 308 308 312 316 315 316 318 316 314 310 309 310 311
130 128 125 129 128 131 131 126 104 119 108 53 2 12 353 320 314 308 303 306 313 308 308 305 301 303 300 300 298 301 293 271 280 286 293 301 299 295 291 291 294 295 299 298 294 295 300 302 300 306 311 314 314 314 312 312 312 311 311 311 314 318
121 121 122 130 131 135 139 137 134 96 54 70 357 13 336 317 308 305 300 315 312 310 307 307 305 299 296 292 297 300 302 304 284 271 277 283 294 300 299 299 297 297 297 296 299 296 291 296 303 307 310 312 313 312 311 309 309 311 313 315 316 314
122 130 138 139 138 147 141 139 117 99 62 39 13 349 333 312 312 302 304 304 304 305 306 301 297 297 299 302 302 301 303 303 304 301 278 281 287 279 286 294 299 300 301 301 300 300 298 298 303 309 311 311 310 310 310 309 311 313 315 314 316 310
152 154 146 144 138 135 137 119 105 74 57 26 10 346 324 317 314 305 305 304 306 303 303 300 298 301 302 305 305 305 303 302 305 308 312 304 288 284 287 285 285 287 293 299 300 301 302 305 307 308 308 309 309 309 309 312 314 314 312 314 313 305
108 102 96 107 125 129 117 108 91 62 47 16 360 337 328 314 306 301 302 305 303 301 293 293 296 301 301 297 297 296 301 300 303 305 304 308 313 310 295 283 286 291 294 293 297 302 305 306 307 308 309 308 309 311 314 315 313 311 309 309 306 300
107 103 108 108 108 108 112 113 97 82 61 21 355 335 325 312 312 309 300 300 302 297 294 296 299 299 297 299 299 299 300 300 302 302 301 306 307 308 309 312 309 299 294 298 302 304 306 306 307 309 309 309 311 314 316 316 313 309 303 295 278 282
107 107 98 99 108 119 122 127 114 90 65 16 352 333 319 316 313 311 307 301 299 298 297 297 296 295 295 298 297 297 298 299 301 301 301 301 299 299 302 302 299 300 306 304 301 300 298 300 300 302 307 311 314 315 318 316 309 303 295 291 285 279